Theta_e
341 340 340 339 337 337 333 330 333 332 332 333 333 332 332 332 329 327 329 332 334 335 333 330 326 321 319 318 314 314 318 321 322 322 325 326 324 322 324 327 326 326 325 321 320 320 320 319 317 316 315 314 315 316 318 320 320 321 319 313 310 310
342 341 341 342 339 339 337 335 335 334 333 334 334 334 334 336 333 330 333 335 336 336 335 334 331 326 323 321 316 313 315 320 323 323 325 327 327 324 323 327 326 327 327 322 320 319 321 322 321 320 319 318 319 319 317 319 323 325 323 316 311 311
342 341 341 343 342 341 339 338 338 337 336 335 336 336 336 337 336 335 335 335 335 335 336 335 334 331 325 323 319 314 312 317 321 323 325 327 328 326 324 327 328 327 327 325 323 322 321 323 324 323 323 323 323 323 321 322 324 327 324 316 312 313
341 341 341 342 343 342 341 340 339 339 338 337 336 337 337 337 336 336 336 335 335 335 337 336 336 334 327 322 321 317 313 312 318 323 325 327 327 327 327 328 329 328 328 330 330 329 326 324 324 325 325 326 326 324 325 327 327 327 325 319 316 315
341 341 342 343 343 343 341 340 340 339 339 338 337 337 337 337 336 336 335 335 334 335 338 337 335 334 329 325 324 322 317 311 314 320 325 329 328 327 328 329 330 328 330 334 333 331 329 325 324 326 326 326 326 326 328 330 330 330 327 322 321 319
341 341 342 343 343 342 341 341 341 340 339 338 338 337 337 336 335 335 334 334 334 334 336 336 334 334 334 331 327 326 324 317 315 317 324 330 330 327 328 329 329 329 331 333 332 328 327 326 327 328 328 327 327 329 331 331 331 331 328 322 322 322
339 339 340 342 343 342 341 342 341 339 338 338 337 337 337 336 335 335 334 333 333 333 334 335 333 333 335 334 330 328 328 325 320 319 324 330 331 329 330 329 329 331 332 332 331 327 325 327 328 330 329 329 330 331 331 331 330 330 328 324 322 322
339 338 338 339 340 340 340 340 339 338 338 337 336 336 336 335 334 334 334 333 333 333 334 335 334 332 334 335 333 329 328 328 326 323 325 330 332 331 330 330 331 332 333 333 331 329 328 326 327 330 330 330 331 331 330 330 330 329 329 327 324 322
338 337 337 337 337 338 338 337 337 337 337 336 335 336 336 335 334 333 333 333 333 333 335 336 334 332 333 335 335 331 329 329 329 327 326 329 332 330 328 329 331 332 333 333 332 331 329 327 327 330 330 330 330 330 330 330 329 329 329 329 327 324
337 336 336 336 336 337 336 335 336 336 336 335 335 335 334 333 332 333 333 333 333 333 335 337 334 333 334 334 334 332 330 328 329 329 326 328 331 330 328 328 331 332 333 333 332 331 329 329 329 330 330 330 330 330 330 329 329 329 329 329 328 324
337 336 336 338 337 336 335 335 336 335 335 334 334 334 331 330 330 332 333 333 333 333 335 336 334 333 334 334 333 332 331 328 328 329 327 327 329 329 327 327 330 332 332 333 333 331 330 330 331 330 331 330 330 330 330 330 330 330 329 329 328 326
339 338 337 339 338 336 335 335 336 336 335 335 334 332 330 329 328 329 332 333 333 332 334 335 334 333 333 333 333 332 332 330 329 329 328 327 326 325 324 325 329 331 332 332 332 331 330 330 331 331 330 328 329 330 330 330 330 330 329 329 329 328
339 339 338 340 339 338 337 337 336 336 335 335 334 332 331 330 328 328 329 331 332 332 334 336 334 333 333 333 333 333 332 332 331 330 330 329 324 322 322 324 326 328 330 331 331 330 330 329 329 330 329 328 329 330 331 331 330 330 330 329 329 329
338 337 337 337 337 337 339 338 338 337 336 335 334 334 333 330 328 327 328 331 331 331 333 336 335 333 333 334 333 333 332 332 332 331 331 331 327 324 323 324 326 327 329 330 331 330 330 330 329 330 328 328 329 329 331 330 330 330 329 329 329 328
336 335 335 334 333 334 336 336 338 338 336 335 334 336 335 332 330 328 328 330 330 330 333 335 336 334 333 334 333 333 332 331 332 332 332 331 330 328 325 325 326 328 329 330 331 330 330 330 330 330 327 327 328 329 331 330 330 329 329 329 328 328
336 335 333 333 332 333 334 333 335 336 335 334 335 336 336 334 332 330 327 328 329 330 332 334 336 334 333 333 332 332 333 331 331 332 332 331 330 330 328 326 326 328 330 331 331 330 330 329 329 329 326 327 329 329 331 331 330 330 329 329 329 329
334 335 334 333 332 333 334 334 334 335 334 334 335 336 337 335 333 332 329 327 328 329 331 334 335 335 334 333 332 332 332 331 332 332 332 331 330 330 331 329 327 326 328 330 330 329 329 328 329 328 326 328 330 330 331 331 331 330 329 329 330 330
332 332 333 334 333 332 332 333 334 335 335 334 335 336 336 335 334 333 332 329 328 328 329 331 334 336 335 333 332 333 332 331 332 332 329 329 329 330 331 331 329 327 327 329 329 329 329 328 329 328 327 330 331 331 331 331 331 331 330 330 330 330
331 329 329 331 333 333 331 330 331 333 334 334 334 335 335 334 334 334 333 332 330 328 329 330 332 335 334 333 332 332 332 332 332 330 325 324 327 329 331 331 329 328 328 328 329 330 330 329 329 329 329 330 331 330 331 330 330 330 330 330 330 329
329 327 327 330 332 333 332 331 330 332 333 332 333 334 334 334 334 334 333 333 331 330 330 330 331 333 333 332 332 331 331 332 332 330 326 324 324 325 328 329 329 329 329 328 328 329 330 329 328 328 329 331 331 331 330 330 330 330 330 329 329 329
327 326 327 329 331 331 332 332 332 333 332 332 333 334 334 335 334 335 334 334 333 332 331 330 330 331 331 331 332 331 331 331 331 330 328 327 325 324 326 328 329 329 329 329 329 329 328 327 327 329 331 331 331 331 330 330 330 330 329 329 329 330
328 326 329 331 332 331 331 331 332 333 334 335 335 335 336 335 335 336 335 334 333 332 331 330 329 329 331 332 332 331 331 331 330 330 329 328 327 326 326 328 329 329 329 329 329 328 327 326 327 330 332 332 332 331 331 330 330 330 329 329 329 330
332 331 333 334 334 334 333 331 332 334 337 337 337 336 336 336 336 336 336 335 334 332 332 330 329 328 331 333 333 332 331 330 330 329 330 329 327 327 327 327 328 328 328 328 328 328 327 326 328 331 331 331 332 331 331 330 330 330 329 329 328 329
334 334 334 334 334 334 334 333 334 336 337 338 337 336 336 336 336 336 336 336 335 334 333 332 330 328 330 332 333 332 331 330 329 329 331 331 329 327 326 327 327 328 328 328 328 328 328 328 329 331 331 331 331 331 331 331 330 330 329 328 328 327
333 332 333 333 333 334 334 334 334 335 336 336 336 336 336 335 335 335 335 335 334 334 333 332 331 330 330 331 332 332 332 331 330 329 331 332 330 328 328 328 327 327 327 328 329 328 328 329 330 329 330 331 331 330 331 331 331 330 329 329 328 328
332 332 333 333 334 334 334 334 334 334 335 335 335 335 335 334 334 334 334 334 334 333 332 332 332 331 331 331 331 332 332 332 330 329 330 331 330 329 329 328 327 327 327 328 331 330 329 330 331 329 329 330 330 330 331 331 331 330 330 329 328 328
331 332 333 332 332 333 333 334 333 333 333 334 334 335 334 334 334 334 333 333 333 331 331 332 332 332 331 331 331 331 332 333 331 330 329 330 330 329 329 329 329 329 329 329 329 330 331 331 330 330 330 331 330 329 330 331 330 331 330 329 328 327
331 331 332 331 330 331 332 332 332 331 331 332 332 333 333 333 333 333 332 332 331 330 330 331 332 332 331 331 331 332 333 333 332 330 329 329 331 330 330 329 329 329 330 330 328 327 331 332 330 330 331 331 330 330 330 330 330 331 330 330 329 328
331 331 332 331 330 330 330 331 332 332 332 333 332 332 332 332 332 332 332 331 330 330 331 331 332 332 332 332 332 333 333 333 333 331 329 329 331 331 330 329 329 329 330 330 328 327 329 330 330 331 332 332 331 331 330 330 330 330 330 330 330 330
331 331 331 331 331 331 331 331 332 333 333 333 333 332 332 332 332 332 332 331 330 330 331 331 331 332 332 332 332 333 333 333 333 331 329 330 330 330 329 328 329 330 330 330 330 329 329 329 330 331 331 332 331 331 331 331 331 331 330 330 330 330
330 330 330 331 331 331 331 331 331 332 333 333 334 333 332 332 332 332 331 331 330 331 331 330 331 331 332 331 331 331 332 332 333 330 328 330 330 330 328 326 327 329 330 330 329 329 329 330 331 331 331 332 331 331 331 331 331 331 330 330 330 330
328 329 329 329 329 330 330 329 330 331 332 332 332 332 331 331 331 331 331 331 330 331 331 331 330 330 330 330 330 330 330 331 331 329 328 330 330 330 330 328 327 327 329 330 329 329 330 331 331 330 331 332 331 331 331 330 330 330 330 330 330 330
327 327 327 327 328 328 328 328 329 330 330 330 330 330 330 330 331 331 331 331 330 331 332 331 329 328 327 328 328 329 330 329 329 329 329 330 330 329 330 329 327 327 329 330 329 328 330 330 330 330 331 332 332 331 331 330 330 330 330 330 330 330
326 326 326 326 326 327 327 328 329 329 329 329 330 330 330 330 330 330 330 331 331 331 331 329 327 326 326 326 326 327 329 329 328 329 330 331 330 328 329 328 327 328 329 330 329 328 330 331 330 330 330 331 332 331 331 330 330 331 330 330 330 330
325 325 326 326 325 326 326 326 327 328 328 329 330 330 329 329 329 329 330 331 330 331 331 329 327 325 325 326 326 327 328 328 328 328 329 331 330 328 328 327 328 328 329 330 329 329 331 331 330 330 329 330 331 331 330 330 330 330 330 330 330 329
324 325 326 326 326 326 326 325 326 327 328 329 330 330 329 329 329 329 330 330 330 331 331 330 329 327 325 325 326 327 328 328 328 328 329 329 329 328 328 328 329 329 329 329 328 328 330 331 330 330 330 331 332 331 331 331 331 331 330 330 329 329
323 324 325 326 326 326 326 326 326 327 328 329 329 329 329 329 329 329 329 330 330 330 330 329 328 328 327 326 327 327 329 329 329 329 329 328 328 328 327 327 328 330 330 330 328 328 330 330 330 330 330 330 331 331 331 331 330 330 331 330 330 330
Wind_Speed
15 15 15 14 13 13 11 9 9 7 7 6 6 6 6 7 7 8 9 8 8 7 4 3 3 6 9 9 11 13 15 15 14 12 11 11 12 10 9 10 12 12 12 13 15 17 17 17 17 18 17 18 19 18 17 16 15 14 13 12 12 11
16 15 15 15 14 14 12 10 10 8 7 7 6 7 7 7 7 7 8 8 9 9 7 4 4 5 7 9 10 12 15 16 15 14 12 11 11 10 9 9 10 11 10 11 13 15 15 16 16 17 17 18 19 17 17 17 15 13 11 10 11 10
16 15 15 14 13 13 12 11 10 9 8 8 8 8 8 8 7 7 7 9 9 10 9 8 7 7 6 8 10 11 14 16 17 15 14 12 11 10 9 9 9 10 9 9 10 12 13 14 15 15 16 18 17 15 16 16 14 12 9 9 10 9
15 15 13 12 12 12 12 11 10 9 9 9 9 8 9 9 9 9 9 9 9 10 10 9 10 8 6 7 9 11 12 14 17 17 15 13 11 10 10 9 9 9 9 8 7 8 10 11 12 13 15 16 13 13 14 12 11 10 8 8 8 8
14 14 12 11 11 12 12 11 10 10 10 9 9 10 10 11 11 11 11 10 10 10 10 10 10 8 6 7 7 10 11 13 16 18 17 12 10 11 10 10 10 9 8 8 8 8 8 9 11 12 13 12 11 10 10 9 8 7 6 7 6 7
14 13 12 12 11 12 12 11 11 11 10 10 10 11 11 11 12 11 11 11 11 11 11 11 11 9 8 8 8 8 9 12 15 19 17 11 10 12 11 11 11 9 8 9 9 9 9 9 10 10 10 10 9 8 7 6 6 5 5 6 6 5
13 13 12 12 12 12 12 12 12 12 11 11 11 11 10 11 12 11 11 12 11 11 11 11 11 11 10 9 10 9 8 11 14 18 17 12 12 12 11 11 11 10 9 9 9 8 8 9 9 9 9 9 8 6 6 6 5 5 4 5 6 5
12 12 12 13 12 12 12 12 13 12 12 12 11 10 10 11 11 11 11 11 11 11 10 11 11 12 12 10 10 10 10 10 12 16 16 12 11 12 11 11 10 11 11 9 9 8 7 8 9 9 8 7 6 5 6 6 5 5 3 3 5 6
12 11 12 12 12 12 12 13 13 11 12 12 10 10 9 10 11 11 12 12 12 11 11 10 10 12 12 11 10 10 11 11 11 14 15 12 12 13 13 12 11 11 11 10 9 8 7 7 7 7 7 6 5 5 6 5 5 5 3 2 2 4
12 11 11 11 11 11 12 13 12 11 11 11 10 9 9 9 10 10 12 13 12 13 12 11 11 12 12 11 11 10 11 12 12 13 14 14 14 14 13 12 12 12 11 10 9 8 7 6 6 6 6 5 4 4 4 4 5 4 3 3 3 3
10 10 11 11 11 11 11 11 11 10 10 9 9 9 10 9 10 10 11 13 14 15 15 14 13 13 12 11 11 11 11 12 13 12 13 15 15 14 14 14 13 13 12 11 10 9 7 6 5 5 5 4 4 4 3 4 4 4 4 3 2 2
8 9 9 9 9 10 10 10 10 9 9 9 9 9 10 10 10 10 12 14 15 16 16 16 15 14 13 11 12 12 12 12 13 13 13 16 16 15 17 16 15 14 12 12 10 9 8 7 6 5 4 4 3 3 4 4 4 4 5 4 2 2
6 7 7 6 6 7 8 9 10 9 9 9 10 10 11 11 11 10 12 14 16 17 17 17 16 15 13 12 12 12 12 12 13 13 13 14 15 16 19 18 16 15 12 11 10 9 8 7 6 5 5 3 3 4 4 4 3 3 4 4 3 2
4 6 8 8 7 6 7 7 8 9 10 10 10 10 12 13 11 11 12 14 16 18 18 18 17 16 14 13 13 12 13 13 12 13 13 13 13 16 20 20 17 15 14 12 11 10 9 8 7 6 5 4 4 5 4 4 4 4 3 3 3 3
5 9 10 11 11 10 9 9 9 10 11 11 11 11 12 12 12 11 12 13 16 18 19 19 19 17 16 15 14 13 13 14 13 13 13 14 13 15 18 19 18 16 15 13 11 10 10 9 7 6 6 5 6 5 3 4 4 4 4 3 2 2
7 9 11 13 13 13 12 12 12 12 13 12 11 12 12 12 12 12 12 14 16 18 20 20 20 18 17 17 15 15 14 15 15 14 13 14 15 15 15 17 18 17 15 13 12 11 10 10 8 7 7 7 6 5 4 4 3 3 4 3 3 2
7 8 9 11 13 14 14 14 14 15 14 12 11 12 12 13 14 13 13 14 16 18 19 21 20 18 18 19 17 16 16 16 16 15 15 15 15 15 14 15 17 17 16 14 13 13 12 10 9 8 8 8 7 5 5 6 5 5 4 3 3 3
5 6 9 11 13 15 16 17 16 15 14 13 13 13 14 15 15 15 14 15 16 18 20 21 21 20 21 20 19 18 18 17 17 16 16 16 16 15 15 17 19 19 18 16 14 13 12 11 9 9 9 9 8 6 6 7 7 6 5 5 6 5
2 6 9 12 14 15 17 19 20 18 17 16 16 16 17 17 17 17 16 16 17 18 19 21 22 23 23 22 20 19 19 18 17 16 17 18 19 17 17 19 21 20 19 17 15 12 11 10 10 10 10 10 9 7 7 8 8 8 6 7 8 7
3 7 7 10 14 15 16 19 20 20 19 19 19 18 18 18 18 18 18 19 18 18 19 21 23 24 23 22 22 21 20 19 17 16 16 18 20 19 19 21 21 21 20 18 16 13 11 10 11 11 11 10 9 8 8 8 9 9 9 9 9 7
5 4 5 8 12 14 15 17 18 18 19 20 19 19 18 18 19 19 19 20 19 18 19 21 23 23 23 23 24 23 22 21 19 18 17 17 18 19 20 21 21 21 21 18 16 15 13 12 12 11 10 9 8 8 8 9 9 9 9 9 9 8
6 5 6 7 10 12 12 12 13 14 16 17 18 18 18 18 19 20 20 20 19 19 20 22 23 23 25 25 25 24 24 23 22 21 20 18 18 18 19 19 20 20 20 19 17 16 16 15 14 12 11 9 8 8 9 9 9 10 10 10 10 10
6 6 6 7 8 9 9 9 9 10 11 13 15 16 17 17 19 19 19 18 18 20 22 24 24 25 27 26 25 26 26 26 25 23 21 20 20 20 19 19 19 19 18 18 17 16 17 17 16 13 12 11 9 9 9 10 11 10 9 10 11 11
5 6 6 6 6 6 6 7 8 8 9 10 12 14 15 17 18 19 19 19 19 20 21 23 25 27 27 26 27 27 27 28 28 26 23 22 22 21 20 20 20 19 18 18 17 17 18 19 18 16 14 12 10 10 10 10 11 10 9 10 11 11
5 6 5 5 4 4 5 6 7 8 8 8 10 12 13 14 16 17 17 18 18 20 20 22 25 27 28 28 28 28 29 30 30 29 25 23 23 22 22 21 21 20 19 19 17 18 19 19 20 19 15 10 9 10 9 8 9 9 9 10 9 11
4 5 4 3 3 3 5 6 7 9 8 9 11 11 11 11 13 14 15 16 17 19 20 21 23 25 28 29 28 28 30 30 29 29 27 25 25 24 23 23 22 21 21 20 18 18 20 20 21 20 16 13 11 9 6 7 9 8 9 10 10 12
4 4 4 3 3 3 4 6 7 8 9 9 10 11 11 12 12 14 16 16 17 19 20 20 22 24 27 29 28 28 29 28 28 29 28 26 26 25 23 23 23 21 21 21 20 19 19 20 20 18 17 17 15 11 7 7 8 7 8 10 12 13
5 5 5 6 5 4 5 6 6 7 7 7 9 11 13 13 14 15 16 15 15 17 18 19 22 24 25 27 27 27 27 27 27 27 28 28 27 26 24 23 22 22 21 20 21 22 20 20 20 18 18 19 18 14 10 9 9 8 8 9 11 13
7 6 6 8 8 6 5 4 5 6 7 7 7 9 10 12 13 13 14 14 13 16 17 18 21 21 21 23 25 25 24 25 25 25 28 29 29 27 25 23 22 22 21 21 22 23 22 21 20 18 18 18 16 14 11 10 9 8 8 9 10 13
6 6 6 7 8 8 6 5 5 6 7 7 8 8 9 10 11 12 13 13 13 14 14 15 17 17 17 19 23 26 23 20 20 22 26 29 29 28 25 23 22 21 21 22 23 24 24 22 21 19 18 16 16 14 13 12 11 9 9 9 9 11
7 7 7 7 7 7 7 7 6 6 7 8 10 10 11 10 10 11 13 12 12 11 10 10 11 11 13 14 18 23 21 16 16 20 24 27 27 27 25 24 23 22 22 23 24 24 24 23 21 18 16 16 15 15 14 13 12 11 10 10 9 10
10 10 10 10 9 9 9 8 7 8 9 10 11 12 12 11 9 10 12 12 11 10 8 7 8 8 9 11 13 16 17 17 18 21 24 26 26 26 26 25 25 25 24 24 24 24 23 23 22 19 17 16 15 15 14 14 12 11 10 10 9 10
11 11 11 11 11 11 10 10 9 10 11 12 12 11 10 10 9 9 11 11 11 10 8 8 8 8 9 10 12 14 16 18 20 20 22 24 26 26 25 26 26 27 26 24 25 25 23 23 22 20 18 17 17 16 15 14 12 11 11 11 10 10
13 13 12 11 10 10 10 10 10 11 12 12 12 11 10 9 9 9 10 11 11 9 8 7 8 9 10 11 13 14 15 17 19 20 21 23 25 26 26 26 26 26 25 24 25 25 23 22 22 21 20 19 17 17 17 16 14 12 12 11 11 11
15 14 14 12 11 10 8 9 10 11 12 11 11 11 11 10 9 10 11 11 11 9 8 8 8 10 11 12 14 15 16 17 18 20 21 22 25 26 26 26 26 25 24 25 25 24 23 24 23 22 21 18 16 17 18 17 16 15 14 12 12 12
14 14 13 13 14 13 11 11 11 10 10 9 8 9 10 10 10 10 11 11 11 10 9 8 10 11 11 12 14 15 17 18 18 19 19 21 24 26 26 26 25 24 23 25 25 23 23 24 22 22 21 19 17 17 18 18 17 16 15 13 12 12
12 12 11 12 14 14 13 14 13 11 9 7 7 8 9 10 10 10 11 11 12 11 9 9 10 11 12 12 14 16 18 19 19 19 19 21 24 26 27 27 25 23 22 24 25 25 26 25 22 22 22 21 20 19 19 21 21 19 17 15 14 14
Wind_Direction
181 178 172 169 174 177 178 174 164 159 154 146 140 134 135 146 141 136 134 134 144 152 172 205 216 201 187 183 182 180 180 182 185 188 187 171 159 155 150 141 135 134 123 113 108 105 102 99 98 97 98 98 94 93 96 94 87 86 86 85 89 95
185 181 178 174 177 182 179 173 172 172 169 165 163 155 155 166 162 150 148 154 162 166 181 201 221 217 197 190 187 186 186 186 188 190 193 187 172 164 158 149 138 138 130 116 108 104 103 102 101 101 101 98 93 97 100 97 94 92 91 88 86 90
186 184 181 176 178 182 182 179 180 183 185 186 185 181 179 185 188 180 176 179 175 175 181 186 207 225 214 198 191 190 190 190 191 191 196 196 184 170 163 155 144 141 139 125 110 101 101 103 104 105 102 96 96 100 98 96 98 99 105 104 97 98
190 191 184 177 178 180 185 187 188 193 197 199 196 195 192 192 199 196 193 194 186 183 184 190 207 224 224 211 199 191 193 196 194 193 197 199 194 178 164 159 152 150 147 136 122 109 107 106 108 106 99 98 101 100 95 94 95 97 102 101 100 102
193 195 187 182 185 187 193 193 194 201 203 207 204 202 200 200 208 207 206 206 200 191 188 196 207 216 218 213 207 194 191 195 195 197 195 192 196 188 172 166 160 158 154 144 143 139 126 113 108 105 102 101 98 92 90 88 85 86 91 94 97 99
197 197 192 191 194 198 202 195 198 207 208 212 212 209 208 211 217 219 220 218 212 201 196 206 207 206 206 209 213 199 190 194 196 198 191 182 195 194 185 179 168 163 162 157 155 147 134 120 111 108 106 99 90 89 89 87 87 88 93 91 87 90
204 204 200 197 199 205 203 196 205 214 214 216 216 214 216 222 225 225 227 224 217 207 206 216 213 206 202 202 211 204 199 202 196 194 187 183 193 190 188 189 180 174 169 167 163 152 141 131 124 119 113 102 95 100 100 98 99 94 90 89 87 85
202 205 206 206 207 210 208 207 214 216 217 220 217 216 218 224 228 226 227 225 217 210 210 217 216 211 205 200 209 210 209 206 196 192 188 190 194 187 191 192 187 182 172 170 169 159 152 144 135 127 120 113 111 114 114 116 114 104 95 92 89 86
200 204 207 208 209 212 214 217 219 218 220 222 219 218 218 223 229 228 226 223 219 216 213 212 211 211 208 203 205 211 212 203 191 193 191 190 193 192 198 195 186 186 177 173 174 169 166 157 145 135 131 129 127 124 121 120 116 112 111 126 113 94
207 206 206 205 206 210 215 218 218 219 222 224 222 222 224 228 230 230 228 225 220 219 215 208 205 205 206 205 204 207 213 209 199 201 195 190 194 196 200 198 190 189 182 175 177 181 178 164 156 148 142 145 141 130 126 128 126 131 139 158 157 114
207 208 207 203 206 211 214 217 219 220 224 227 226 227 234 236 234 231 230 228 223 222 219 210 204 201 202 206 207 205 209 214 211 211 200 192 197 196 198 202 197 194 188 181 183 188 184 169 169 161 154 166 159 139 143 150 144 147 157 177 180 131
207 213 214 207 211 214 214 220 223 223 227 230 230 232 239 241 239 235 232 232 230 227 225 219 211 204 203 207 211 209 207 213 215 216 210 202 204 199 198 204 204 202 199 193 190 193 193 183 178 173 181 189 166 162 170 162 159 160 158 170 191 161
216 218 218 213 219 219 216 225 229 229 232 235 236 235 239 243 241 238 235 236 237 234 230 226 220 211 209 212 214 214 211 214 216 217 217 213 215 208 203 206 207 205 205 204 202 204 208 205 197 197 208 199 176 189 182 166 191 189 162 162 174 175
236 229 224 222 229 234 226 229 233 234 236 237 239 239 242 247 245 238 236 239 243 242 236 230 227 218 214 218 219 219 217 217 217 217 217 218 219 215 211 211 211 209 208 207 206 208 212 213 214 218 223 207 203 214 190 181 206 201 180 179 175 166
249 239 231 230 235 240 235 234 239 240 243 241 239 242 246 252 253 244 236 239 245 247 240 232 228 224 218 221 223 222 220 218 217 216 216 217 217 217 216 215 213 212 211 208 206 207 208 214 220 226 236 230 220 215 199 211 219 199 197 194 170 169
261 247 237 232 233 237 236 236 239 244 251 252 246 245 248 253 257 253 243 240 244 247 246 237 230 228 223 222 225 225 222 219 217 215 215 216 216 215 216 216 215 213 211 207 207 207 209 218 223 229 242 242 228 207 201 225 230 216 216 188 163 195
266 258 250 241 237 238 240 238 239 246 254 258 253 249 250 254 258 258 250 243 243 246 249 243 234 232 229 224 224 226 225 222 220 217 216 216 216 214 212 213 214 214 213 210 210 211 213 220 225 233 235 232 228 211 203 212 213 222 226 188 178 202
260 277 270 253 245 240 240 240 239 244 251 254 255 252 251 255 257 257 252 245 243 242 247 247 237 232 234 230 225 226 226 225 224 221 219 217 215 213 212 213 213 213 212 212 212 212 216 221 225 232 230 222 221 216 210 211 210 215 213 195 200 202
253 300 276 250 246 241 238 239 239 239 242 246 251 253 252 253 255 256 255 250 245 240 243 247 240 233 236 236 230 227 228 227 226 224 221 217 215 211 211 215 215 212 212 212 214 212 214 217 220 225 224 220 220 219 215 217 217 209 202 207 211 204
316 308 274 241 239 240 235 236 238 236 237 242 247 252 254 253 255 256 257 254 250 244 243 246 244 237 236 239 236 232 229 228 226 224 220 216 215 212 213 219 218 213 213 213 214 214 213 214 219 223 222 221 223 226 221 220 221 213 209 215 211 205
316 293 256 246 245 243 236 236 240 239 238 242 246 252 255 256 256 255 256 256 252 247 247 249 249 244 238 238 237 234 231 229 225 222 218 211 210 209 213 221 220 216 216 215 215 217 217 217 216 213 212 215 221 227 226 222 224 223 220 218 208 202
287 261 248 256 255 253 247 247 253 251 246 246 248 251 253 256 258 259 259 258 254 251 252 253 254 248 239 235 235 235 235 231 224 219 217 210 206 206 208 217 217 215 216 215 218 219 219 218 212 206 202 205 214 220 226 225 226 228 226 223 215 206
272 278 277 263 254 260 260 261 266 262 254 251 252 252 252 255 259 263 265 263 260 261 259 256 255 252 245 238 234 233 234 234 226 220 218 214 211 208 207 212 213 213 212 214 218 217 216 215 208 204 204 207 213 215 224 227 224 226 224 226 225 214
268 274 279 270 262 267 269 270 269 263 257 251 251 253 254 256 259 263 266 268 268 269 268 261 257 253 249 242 237 234 233 233 229 223 218 215 213 210 209 210 210 210 209 210 214 215 217 217 208 201 202 206 207 210 221 219 212 220 223 225 231 223
281 277 280 283 284 288 292 296 289 280 273 262 259 259 259 262 266 268 273 279 279 276 276 270 261 254 250 245 241 238 235 234 231 226 220 216 215 214 212 213 212 212 212 211 213 218 222 220 214 208 205 202 197 208 222 205 192 208 219 221 226 222
299 293 295 293 275 272 289 299 294 288 287 282 278 276 276 277 278 278 281 288 290 285 279 272 265 258 254 250 246 243 241 238 234 230 225 221 220 218 217 219 219 217 218 215 214 222 224 219 217 215 211 208 202 201 207 195 190 197 207 216 221 219
335 318 313 313 293 277 288 301 304 300 295 290 287 287 288 287 284 283 284 290 293 288 279 271 267 263 257 253 249 244 241 239 236 233 232 228 224 222 220 221 221 219 220 218 216 222 223 220 218 215 214 217 215 210 201 198 203 196 197 211 220 223
344 334 325 318 310 300 293 298 309 308 303 301 296 290 286 285 284 285 291 296 291 284 279 272 267 264 258 252 248 242 235 237 240 237 235 232 227 223 221 220 220 218 219 219 220 222 223 225 222 214 217 221 220 222 219 209 211 209 205 210 213 217
346 344 335 322 319 320 307 299 304 297 293 301 300 293 288 288 290 291 295 297 289 284 283 275 267 262 255 247 242 239 231 228 233 236 236 233 228 223 220 220 221 219 220 220 221 223 224 228 225 213 212 216 215 219 221 218 217 213 214 217 209 204
348 349 346 335 331 330 316 298 289 283 287 296 295 292 289 289 293 293 292 290 285 286 285 279 270 255 248 244 236 237 235 220 216 229 237 234 228 223 219 221 224 223 223 223 223 224 221 220 221 214 207 208 208 210 211 215 218 213 214 223 218 204
342 340 340 335 327 321 311 297 288 287 291 293 292 292 289 286 287 287 288 286 280 280 280 281 275 251 243 245 235 238 244 232 216 225 235 235 229 222 217 220 226 226 227 228 226 225 219 216 219 215 205 204 207 208 208 211 214 214 214 219 220 209
346 345 342 338 331 326 320 314 309 303 300 301 300 295 287 283 280 279 281 281 274 272 275 274 269 260 253 251 243 240 243 239 230 228 234 237 232 225 219 220 225 228 230 229 227 226 223 220 220 214 206 206 207 207 210 214 213 212 214 216 216 209
349 351 348 342 335 327 319 314 309 304 303 306 306 299 287 280 278 274 272 272 269 270 276 266 255 263 265 257 252 247 242 239 238 237 238 237 233 228 223 222 225 229 231 228 225 226 225 224 222 216 208 208 208 207 210 213 212 211 213 213 212 210
357 359 358 352 341 328 314 305 300 299 299 300 305 304 294 284 282 280 270 263 261 260 268 267 259 264 266 255 248 244 241 238 237 239 240 234 227 223 223 225 228 231 231 228 224 223 223 224 223 217 211 207 206 209 210 209 210 211 212 212 211 207
2 1 3 4 359 352 338 318 302 294 293 298 306 307 300 295 292 284 271 262 257 250 252 260 260 263 263 256 248 241 236 235 233 233 235 231 223 220 224 226 230 234 231 228 227 222 221 224 224 222 217 208 205 210 211 209 210 212 212 212 209 206
2 357 355 359 358 355 351 343 330 314 307 306 306 301 296 296 290 278 270 264 259 251 250 255 255 258 262 260 258 250 239 233 233 231 231 229 221 220 225 227 232 233 227 228 230 226 225 224 223 223 219 209 207 211 211 210 211 211 213 213 210 207
1 355 350 348 346 343 341 340 339 333 321 307 301 295 289 283 275 270 268 263 258 252 250 254 257 259 261 259 257 254 245 235 230 228 227 225 221 222 226 230 234 233 228 231 232 229 229 226 222 226 223 213 210 211 214 214 212 210 210 210 211 209